Regional Weather Roundup
Issued by NWS Portland, ME

Home | Current Version | Previous Version | Text Only | Print | Product List | Glossary On
Versions: 1 2 3 4 5 6 7 8 9 10 11 12 13 14 15 16 17 18 19 20 21 22 23 24 25 26 27 28 29 30 31 32 33 34 35 36 37 38 39 40 41 42 43 44 45 46 47 48 49 50
000
ASUS41 KGYX 271210
RWRGYX
WEATHER ROUNDUP FOR MAINE AND NEW HAMPSHIRE
NATIONAL WEATHER SERVICE GRAY ME
800 AM EDT FRI MAY 27 2016

MEZ002-005-006-010-012-015-018-020-021-024-026-027-029-271300-
MAINE

CITY           SKY/WX    TMP DP  RH WIND       PRES   REMARKS
PORTLAND       PTSUNNY   56  52  86 E13       30.16F
6HR MIN TEMP:  54; 6HR MAX TEMP:  57; 6HR PCP:  0.11;

SANFORD        CLOUDY    55  48  76 NE10      30.15S
BAR HARBOR     CLOUDY    50  45  83 VRB6      30.23R
WISCASSET      CLOUDY    54  49  83 E6        30.20R
6HR MIN TEMP:  54; 6HR MAX TEMP:  56; 6HR PCP: TRACE;

ROCKLAND       CLOUDY    51  46  83 E12       30.21R
FRYEBURG       CLOUDY    57  54  89 N5        30.17F
6HR MIN TEMP:  56; 6HR MAX TEMP:  60; 6HR PCP:  0.01;

LEWISTONAUBURN CLOUDY    55  50  82 E6        30.18S
AUGUSTA        CLOUDY    54  48  80 SE7       30.20R
6HR MIN TEMP:  54; 6HR MAX TEMP:  55; 6HR PCP: TRACE;

WATERVILLE     CLOUDY    54  49  83 CALM      30.17S
BANGOR         PTSUNNY   55  46  71 SE6       30.21S
6HR MIN TEMP:  54; 6HR MAX TEMP:  59; 6HR PCP: TRACE;

GREENVILLE       N/A     48  46  93 S8        30.14F
6HR MIN TEMP:  48; 6HR MAX TEMP:  53; 6HR PCP:  0.14;

MILLINOCKET    CLOUDY    50  47  89 VRB3      30.21F
6HR MIN TEMP:  50; 6HR MAX TEMP:  56; 6HR PCP:  0.01;

HOULTON        LGT RAIN  45  42  89 SE5       30.20F FOG
6HR MIN TEMP:  45; 6HR MAX TEMP:  50; 6HR PCP:  0.01;

PRESQUE ISLE   HVY RAIN  45  43  93 SE8       30.21S FOG
6HR MIN TEMP:  45; 6HR MAX TEMP:  52; 6HR PCP:  0.10;

FRENCHVILLE    RAIN      46  43  89 SE12      30.15F FOG
6HR MIN TEMP:  46; 6HR MAX TEMP:  52; 6HR PCP:  0.08;

CARIBOU        RAIN      46  42  86 SE13      30.19F
6HR MIN TEMP:  46; 6HR MAX TEMP:  53; 6HR PCP:  0.01;

$$

NHZ002-005-008-009-011-012-014-271300-
NEW HAMPSHIRE

CITY           SKY/WX    TMP DP  RH WIND       PRES   REMARKS
PORTSMOUTH     CLOUDY    57  53  85 NE7       30.12R
ROCHESTER      CLOUDY    57  51  80 NE7       30.13S
6HR MIN TEMP:  56; 6HR MAX TEMP:  57; 6HR PCP: TRACE;

NASHUA         CLOUDY    60  54  80 NE6       30.12F
MANCHESTER     CLOUDY    60  53  77 NE6       30.11S
6HR MIN TEMP:  58; 6HR MAX TEMP:  61;

CONCORD        CLOUDY    60  53  77 NE3       30.13S
6HR MIN TEMP:  58; 6HR MAX TEMP:  61; 6HR PCP: TRACE;

LACONIA        CLOUDY    56  53  90 E10       30.16R
PLYMOUTH       FAIR      62  53  73 CALM      30.13S
BERLIN         PTSUNNY   63  48  58 SE8       30.10F
6HR MIN TEMP:  59; 6HR MAX TEMP:  67; 6HR PCP: TRACE;

WHITEFIELD     CLOUDY    65  55  70 CALM      30.07F
6HR MIN TEMP:  61; 6HR MAX TEMP:  70; 6HR PCP:  0.03;

JAFFREY        PTSUNNY   62  55  77 N3        30.12S
6HR MIN TEMP:  59; 6HR MAX TEMP:  63;

KEENE          PTSUNNY   64  55  72 NE3       30.10S
LEBANON        CLOUDY    65  56  72 E3        30.08R
6HR MIN TEMP:  64; 6HR MAX TEMP:  67;

MT WASHINGTON  CLOUDY    50  48  93 SW36        N/A
6HR MIN TEMP:  44; 6HR MAX TEMP:  51; 6HR PCP:  0.02;

$$

VTZ005-007-008-271300-
VERMONT

CITY           SKY/WX    TMP DP  RH WIND       PRES   REMARKS
ST JOHNSBURY     N/A     65  57  75 MISG      30.05S
MONTPELIER     FAIR      65  56  72 S8        30.10S
BURLINGTON     CLOUDY    71  58  63 SW9       29.99R
$$

MAZ007-012-024-CTZ003-RIZ002-NYZ038-NYZ072-271300-
SOUTHERN NEW ENGLAND AND NY

CITY           SKY/WX    TMP DP  RH WIND       PRES   REMARKS
BOSTON         CLOUDY    62  57  83 E3        30.12R
WORCESTER      CLOUDY    61  55  81 E5        30.12S
NANTUCKET      FOG       58  57  97 SE10      30.14S VSB 1/4
PROVIDENCE     CLOUDY    63  57  81 S6        30.11F
HARTFORD       PTSUNNY   70  56  61 S7        30.07R
ALBANY         PTSUNNY   73  54  51 S8        30.03R
NEW YORK CITY  PTSUNNY   73  64  73 S7          N/A
$$

ANZ081-ANZ082-ANZ150-NHZ014-MEZ023>029-271300-
COASTAL MARINE OBSERVATIONS

STATION/POSITION TIME  TEMP    WIND        PRES    WAVE
                       AIR SEA DIR/SP/G            HT/PER
                 (UTC) (F)     (DEG/KT/KT) (MB)    (FT/S)
MOUNT DESERT ROC 1200   47      70/ 14/ 15 1023.1R
MATINICUS ROCK   1100   50      90/ 19/ 20 1021.7F
ISLE OF SHOALS   1100   54      40/  5/  5 1020.0R
JEFFREYS LEDGE   1108      52                N/A     3/ 5
CASHES LEDGE BUO 1150   53 51  120/ 14/ 16 1020.8F   2/ 7
GEORGES BANK BUO 1150   53 51              1022.6F   3/ 7
$$

.............KEY..............
   WCI - WIND CHILL
   TC  - TEMPERATURE IN CELSIUS
   VSB - VISIBILITY IN MILES
   HX  - HEAT INDEX
   FAIR- INDICATES FEW OR NO CLOUDS BELOW 12,000 FT, WITH NO
         SIGNIFICANT WEATHER AND/OR OBSTRUCTIONS TO VISIBILITY.






USA.gov is the U.S. government's official web portal to all federal, state and local government web resources and services.